Dewpoint
50 50 50 50 50 51 51 51 51 51 51 51 51 52 52 53 53 53 54 53 53 53 53 53 53 53 53 53 53 53 53 48 46 44 43 46 49 60 60 58 59 56 57 35 30 32 26 30 31 32 29 28 25 20 13 11 11 11 11 9 10 10 8 4 -1 -5 -9 -13 1 6 7 7 3 27 27 25 31 28 37 49 49 57 54 50 49 62 64 64
50 51 51 50 50 50 50 50 50 50 51 51 51 52 52 53 53 53 54 54 53 53 54 54 53 53 53 53 52 53 50 47 46 44 42 46 56 57 59 60 59 58 55 34 29 31 25 26 29 31 31 26 22 17 13 11 12 11 11 9 7 8 8 5 -2 -6 -1 6 5 7 9 8 5 14 29 28 30 31 43 51 52 56 57 53 57 62 63 65
50 50 51 51 51 50 50 50 50 50 50 51 51 51 51 52 53 53 53 53 54 54 54 53 53 53 53 52 53 54 50 46 46 43 43 54 57 58 59 58 58 60 40 29 29 29 26 26 28 31 29 24 18 14 11 8 12 11 11 10 9 7 5 3 -2 -4 1 6 7 7 5 3 26 24 36 33 31 31 40 50 48 52 58 60 62 63 63 64
50 50 50 50 50 50 51 50 50 51 51 51 51 51 51 51 52 52 53 53 53 54 53 53 53 53 52 53 54 51 47 46 40 38 39 62 57 58 58 59 60 57 36 28 24 27 28 27 28 28 24 19 15 11 8 5 11 12 11 11 10 5 1 1 0 1 2 5 8 9 5 3 6 14 31 34 38 34 41 42 49 47 55 59 61 61 63 65
50 50 50 50 50 50 50 50 50 51 51 51 51 51 51 51 51 52 53 53 53 54 53 53 52 52 53 53 54 50 46 39 36 38 55 60 59 59 59 58 62 37 31 27 25 24 26 26 25 23 21 17 11 8 6 5 8 13 11 9 8 7 0 -2 -2 3 4 4 6 7 5 -1 19 21 28 32 37 46 44 41 51 48 51 58 60 61 64 65
50 50 51 51 51 51 50 50 50 50 51 51 51 51 51 51 51 52 52 53 53 53 53 53 52 53 53 53 50 47 41 24 32 40 60 61 59 60 59 63 61 38 28 25 25 26 23 22 21 19 18 16 11 5 5 4 5 10 11 8 7 4 2 2 3 5 4 6 8 8 6 1 5 7 18 26 33 43 44 45 45 46 51 57 61 61 64 65
50 50 51 50 51 51 50 50 50 50 50 51 51 51 51 51 51 51 52 52 53 52 53 53 53 53 53 53 49 47 42 35 33 48 63 60 60 61 60 59 58 37 28 24 27 27 20 17 16 15 15 13 9 6 4 5 7 9 9 8 8 6 3 0 2 5 7 8 7 4 2 5 5 4 17 21 33 36 41 45 39 47 49 59 60 63 64 64
50 50 50 50 50 51 51 51 51 50 50 50 51 51 51 51 51 51 51 52 52 52 52 53 52 52 53 48 43 39 43 40 37 46 61 60 54 55 53 33 30 29 30 26 27 24 17 13 13 12 12 10 8 4 3 3 6 7 8 9 8 6 2 1 4 6 5 6 5 4 3 4 5 3 8 12 30 35 45 40 41 47 50 57 60 61 62 63
50 50 50 50 50 50 51 51 50 51 51 50 51 51 51 51 51 51 51 51 52 52 52 52 52 52 53 49 45 40 31 30 41 51 57 48 40 43 27 24 25 26 30 30 29 19 13 12 12 11 9 10 9 3 2 1 1 5 6 7 8 6 5 2 3 5 6 4 2 3 4 5 4 2 3 9 27 31 34 41 45 45 47 50 54 61 63 63
50 50 50 50 50 50 50 50 51 51 51 51 51 51 50 51 51 51 51 51 51 52 52 52 52 52 49 46 42 36 31 33 45 45 41 37 30 32 26 23 21 23 26 29 27 18 10 8 7 8 9 8 6 2 2 0 -0 6 8 7 5 5 4 4 8 7 5 4 2 2 2 3 3 1 1 7 9 28 30 31 28 40 49 49 51 60 62 62
49 49 50 50 50 50 50 50 50 51 51 51 51 50 51 50 50 50 51 51 51 51 51 52 52 51 47 44 38 32 26 26 34 42 35 32 29 26 25 27 22 22 25 26 21 16 12 10 8 7 7 5 4 3 2 1 -0 3 6 4 4 5 7 5 5 9 7 3 2 1 1 1 2 2 1 2 5 14 26 26 25 43 47 53 58 60 61 62
49 49 49 50 50 50 50 50 50 51 51 50 50 50 50 50 50 50 50 51 51 51 51 51 51 49 47 43 36 31 28 25 27 32 37 32 31 28 28 30 26 24 26 24 20 16 13 10 9 9 6 7 3 3 5 7 4 2 4 5 8 6 5 5 1 7 8 2 -1 1 -1 -2 1 1 2 4 3 18 24 23 22 24 43 55 56 60 61 62
49 49 49 49 50 49 50 50 50 50 50 50 50 50 50 50 50 50 50 50 51 51 51 51 51 47 47 40 33 34 33 29 25 33 40 34 32 30 29 30 27 24 23 21 18 17 16 14 12 10 11 9 9 3 3 6 6 6 6 6 7 4 2 3 -0 4 4 1 -1 -1 -1 -1 0 2 2 3 2 15 20 19 20 23 27 48 54 59 61 62
49 49 49 49 49 50 50 50 50 50 50 50 50 50 50 50 50 50 50 50 51 51 52 52 49 48 45 39 32 31 28 29 21 24 35 36 31 29 28 29 28 25 22 21 20 20 17 14 11 10 10 10 10 11 6 5 5 3 5 6 7 3 3 3 1 2 4 2 0 -1 4 0 -1 -0 2 4 4 16 19 18 19 23 25 54 58 58 60 61
49 49 49 49 49 49 49 49 50 50 50 50 50 50 50 50 50 50 50 50 51 51 51 51 49 48 47 43 41 37 55 30 22 20 25 34 33 29 28 28 27 26 23 22 22 23 22 16 12 11 11 14 14 12 12 11 5 3 2 4 2 3 2 1 2 3 4 2 0 -0 5 -1 -3 -3 -0 2 7 20 20 19 18 24 34 54 58 60 60 60
49 49 49 49 49 49 49 49 49 50 50 50 50 50 51 51 50 50 50 50 50 52 50 48 47 45 42 39 35 50 36 28 23 21 22 29 33 29 29 26 25 24 23 21 22 22 21 17 12 10 10 12 13 14 13 12 6 3 4 12 3 -0 -1 -4 -3 -1 3 1 -2 -2 -3 -4 -3 -3 -3 1 4 18 20 20 22 23 50 55 58 60 60 59
48 49 49 48 49 49 49 49 49 50 50 50 50 50 50 50 50 51 51 51 49 49 47 45 45 47 40 34 39 32 31 31 28 24 20 24 31 29 27 25 22 22 20 18 19 18 17 14 13 12 11 12 15 10 11 12 11 6 2 4 1 -2 -3 -6 -8 -7 -1 -1 -5 -3 -5 -1 1 -3 -2 -2 2 17 18 20 22 25 54 56 58 60 60 59
49 48 49 49 49 49 49 49 49 49 49 50 50 50 49 50 52 51 50 49 49 47 46 46 44 43 40 43 36 28 28 29 25 18 18 23 29 28 25 22 21 19 17 15 17 14 13 12 11 13 16 16 14 11 10 10 12 8 9 8 1 -3 -2 -6 -10 -7 -4 -2 -2 -3 1 1 -1 -3 -1 10 4 16 21 19 21 25 53 54 54 58 59 58
48 49 49 49 49 49 49 49 49 49 49 50 50 52 53 52 49 48 44 45 45 46 41 43 44 30 26 31 34 27 21 22 23 18 18 25 28 28 23 20 18 16 15 13 13 11 10 12 17 16 16 13 12 12 8 6 4 1 3 3 1 0 -7 -6 -7 -7 -5 -1 -4 -4 1 1 1 -1 -1 18 10 19 20 25 24 24 53 52 54 57 57 58
49 48 49 49 49 49 49 49 49 49 50 48 45 45 49 50 49 49 47 44 42 39 34 31 42 35 30 28 26 24 23 25 22 22 23 27 26 24 22 16 14 14 14 16 14 14 13 15 15 14 13 14 17 16 14 6 3 1 6 6 -2 -2 -7 -5 -4 -6 -3 -4 -0 2 1 0 2 -0 10 18 24 24 20 24 27 19 48 48 52 53 57 57
48 48 49 48 49 49 49 49 50 50 49 47 46 41 32 23 22 24 28 30 44 41 33 28 26 35 34 30 25 23 22 24 22 23 24 28 25 23 19 13 12 16 13 10 17 16 14 16 14 15 15 16 17 18 20 15 12 3 8 9 3 -2 -2 -4 -6 -6 -0 18 2 5 -0 -0 4 4 4 17 21 21 23 24 27 22 21 34 48 50 57 57
48 48 48 48 48 49 49 49 49 49 50 47 44 37 27 26 23 25 24 20 19 20 33 36 32 28 26 23 23 24 22 21 21 20 23 26 24 19 13 9 10 10 12 10 15 17 16 16 17 15 17 20 21 23 18 17 17 14 13 12 7 -0 -2 -2 -4 -4 -1 7 6 -1 -1 -1 5 5 2 12 23 25 25 26 27 27 24 27 42 49 50 57
48 48 48 48 49 49 49 49 49 49 47 44 41 39 30 23 27 21 24 21 22 22 21 17 19 24 27 26 22 23 23 21 20 18 21 26 22 15 9 7 8 7 6 11 15 19 18 12 17 14 19 20 19 21 21 19 20 18 17 14 11 4 -2 -0 10 -3 1 12 10 8 5 8 10 10 11 11 6 24 22 22 22 26 27 30 41 46 51 55
48 48 48 48 48 49 49 49 49 48 48 40 32 26 24 24 22 19 25 25 22 22 20 20 21 20 19 23 23 21 22 23 21 18 23 25 19 14 8 6 4 4 3 7 11 15 14 15 15 15 17 18 20 23 24 22 18 21 21 14 10 5 1 -4 13 13 19 16 23 11 15 12 12 8 5 12 13 14 21 22 24 25 23 34 47 51 53 55
48 48 48 48 48 49 48 49 45 44 43 44 40 34 29 27 30 26 32 30 28 27 28 21 18 20 22 22 22 20 21 22 20 19 24 24 19 12 7 7 5 1 2 6 9 12 15 18 20 9 10 7 19 20 22 23 17 16 20 18 14 10 7 -1 13 9 20 15 17 12 11 10 11 8 7 11 12 9 22 28 25 25 31 40 51 52 55 57
48 48 48 48 48 48 49 46 44 30 26 22 25 23 28 26 26 35 35 32 25 18 27 23 19 17 21 19 20 20 22 20 19 20 24 24 23 13 8 8 7 3 1 5 8 13 12 17 17 13 16 17 17 18 18 19 17 16 11 11 11 9 12 8 6 15 13 12 20 21 14 13 13 13 14 15 11 15 27 29 27 27 27 43 49 53 56 56
48 48 48 48 48 48 41 24 41 31 16 19 23 30 25 22 40 38 38 33 27 25 21 18 15 20 22 20 20 22 20 19 18 17 23 26 21 17 9 8 9 7 6 17 16 11 12 10 14 15 18 17 17 14 15 13 11 7 13 8 6 5 7 12 9 10 11 17 22 18 15 12 9 13 16 15 13 19 27 28 31 29 31 49 52 52 55 56
48 48 48 48 48 47 45 45 41 25 11 17 27 27 24 28 36 41 34 18 13 18 19 25 24 27 23 23 24 21 18 16 14 14 20 26 24 17 13 8 8 7 9 12 14 19 22 16 18 17 16 14 13 11 11 10 11 8 9 7 6 4 8 8 10 12 19 18 13 15 14 14 11 12 10 11 13 20 26 30 32 32 33 52 52 52 54 55
48 48 48 48 48 48 47 45 41 35 25 19 24 28 26 36 34 35 30 23 24 12 25 25 29 27 26 25 24 21 16 18 13 14 20 26 24 20 12 12 11 7 8 12 15 18 10 9 11 14 12 11 11 9 7 8 11 11 7 7 7 2 3 6 12 12 18 19 16 17 21 15 12 13 17 16 17 22 29 30 33 34 34 51 52 51 52 54
48 48 48 48 47 46 48 47 45 43 40 30 25 32 37 33 30 31 27 20 18 12 17 20 24 23 23 24 22 19 15 17 15 18 23 24 22 21 17 11 10 10 7 9 11 11 14 17 15 10 10 9 8 7 6 6 8 9 6 7 11 10 7 8 12 12 15 13 14 15 23 20 14 13 18 21 24 25 28 27 29 30 39 46 48 47 50 55
48 48 47 47 44 41 41 36 42 45 44 41 40 38 35 32 29 25 21 21 10 9 13 20 19 20 19 21 20 17 14 17 15 21 21 22 19 18 16 10 7 8 12 11 9 6 8 11 11 9 10 8 6 9 9 6 8 6 8 11 14 15 10 8 12 11 15 13 12 12 16 19 15 18 12 18 24 24 27 26 27 32 44 44 48 48 49 53
48 48 48 47 44 45 42 24 36 35 40 42 41 35 24 19 24 21 22 18 10 7 9 15 14 18 18 20 19 14 12 15 17 21 21 20 20 16 14 13 14 12 11 11 9 6 8 6 10 12 15 7 5 10 11 11 10 5 11 13 13 11 19 11 12 14 11 13 15 14 14 16 16 26 29 27 22 22 25 28 35 39 46 45 44 47 53 53
48 48 49 47 47 47 44 42 40 40 43 41 40 32 23 19 19 19 19 16 15 8 10 12 13 16 19 19 17 16 13 12 17 20 21 21 18 14 12 11 11 14 12 17 12 10 8 5 7 11 10 11 8 10 13 12 11 8 7 12 16 13 11 12 8 11 10 12 13 18 17 15 19 25 22 24 32 33 33 36 37 40 44 47 48 52 53 54
48 48 47 47 48 46 44 47 45 45 47 45 32 25 23 20 18 24 21 14 12 10 8 10 16 18 18 16 16 16 15 11 16 18 19 20 17 18 11 9 10 10 14 20 10 9 9 7 7 9 9 8 11 11 11 12 7 6 8 7 16 18 14 13 7 11 11 9 21 14 21 18 16 32 29 30 33 36 35 40 41 42 43 47 47 48 49 50
48 49 51 51 50 48 48 45 48 48 48 38 24 20 19 20 20 18 18 14 12 9 8 7 10 13 16 16 17 17 15 17 15 18 17 17 17 15 15 9 9 9 10 12 19 19 6 8 10 9 8 7 8 10 10 9 7 4 4 6 14 20 21 12 22 18 20 14 13 22 18 28 26 33 35 34 31 33 37 39 41 40 43 46 45 47 50 54
47 50 51 50 47 49 47 44 47 50 44 33 22 14 15 18 17 14 13 13 10 8 6 6 7 10 13 15 15 15 18 16 14 17 19 15 15 13 12 11 9 8 12 13 20 14 8 14 10 8 8 7 8 8 7 8 14 24 3 6 10 15 14 20 25 25 24 17 13 23 23 30 32 32 32 32 30 30 33 36 37 40 42 47 42 47 54 54
44 45 47 47 43 42 46 45 43 46 44 33 22 16 16 14 10 9 15 7 4 3 2 5 8 7 13 12 14 11 17 16 27 17 20 16 16 13 12 12 12 8 8 12 16 13 15 30 12 10 7 7 9 8 6 8 10 14 12 4 6 9 17 25 15 15 15 12 15 25 28 29 23 26 30 31 31 31 27 40 42 43 44 46 49 52 54 55
46 45 44 39 37 39 37 39 44 44 38 27 23 25 15 9 7 7 7 7 7 3 2 7 11 5 9 11 10 11 18 19 27 21 18 16 23 18 13 13 13 11 8 8 12 22 16 15 15 18 12 9 8 8 7 6 8 9 14 17 13 19 14 16 20 19 18 16 13 11 12 30 21 23 29 31 30 33 42 44 43 42 45 49 51 52 54 56
46 43 40 38 38 39 41 43 43 40 34 24 20 18 15 13 11 7 6 7 7 6 7 6 10 8 3 6 6 7 12 17 25 24 17 35 30 32 35 22 18 12 10 8 10 23 25 19 17 22 15 9 8 9 15 8 6 7 9 17 13 23 24 18 20 15 17 15 17 16 7 22 31 34 28 28 41 43 42 43 46 45 48 50 51 52 53 56
44 42 43 43 41 44 47 48 43 37 32 22 16 14 10 8 6 3 3 7 9 7 7 10 8 8 5 4 1 7 14 14 22 27 24 39 25 38 34 27 19 22 13 11 10 12 22 30 21 19 18 15 18 12 10 9 12 9 10 12 12 27 30 19 30 15 12 14 12 13 10 33 38 38 35 39 44 45 47 47 48 48 49 50 52 54 54 55
45 40 37 42 40 46 48 44 38 32 28 26 21 12 6 3 3 3 3 3 6 9 7 11 11 10 8 6 3 3 20 16 18 21 30 30 24 32 31 28 27 25 29 16 11 17 18 24 22 24 18 17 13 12 10 9 8 10 10 11 10 17 16 14 16 15 17 17 16 12 16 32 39 42 39 42 43 44 46 49 49 49 51 51 50 51 53 55
38 35 34 41 43 43 43 36 34 33 28 23 20 15 9 17 2 3 4 3 5 10 13 14 14 11 11 13 5 7 8 12 18 21 25 35 39 31 30 27 27 34 24 22 19 36 31 33 23 21 20 19 18 15 15 12 9 7 8 8 6 13 16 18 16 20 18 14 13 21 20 29 40 42 41 42 43 43 45 49 48 48 51 52 51 51 53 53
43 31 37 42 44 41 35 33 31 29 31 27 23 21 11 4 3 1 4 8 12 15 15 13 13 11 10 13 14 11 10 12 14 18 24 25 31 25 26 27 27 26 19 22 18 27 31 25 23 22 21 18 19 18 17 15 11 9 8 11 12 12 13 17 21 33 24 19 17 17 18 32 40 41 43 42 42 42 43 46 47 48 51 51 50 50 53 53
35 32 38 39 44 38 33 27 27 30 34 29 27 24 20 18 14 7 4 9 15 17 17 17 14 9 11 12 15 14 13 18 9 12 24 23 28 27 27 29 27 28 19 43 24 34 24 26 21 19 21 27 20 23 24 22 15 14 14 17 11 11 15 26 24 26 18 18 14 15 15 26 43 42 41 40 39 40 41 44 46 46 47 47 48 52 53 54
40 39 33 37 35 37 31 34 30 29 30 31 33 30 28 19 17 16 15 13 15 15 16 16 14 10 6 7 10 10 9 7 18 10 25 26 28 26 26 26 28 35 22 24 39 24 25 28 23 18 18 18 19 18 24 25 24 24 22 17 11 10 20 29 21 26 17 20 16 17 28 35 36 41 41 42 42 43 41 43 47 52 46 47 48 50 53 53
29 23 27 26 32 33 30 35 34 32 31 33 30 28 25 25 19 17 16 17 14 18 18 16 15 15 7 7 10 6 6 12 11 15 18 25 26 26 24 25 29 33 39 47 36 25 26 30 28 25 20 24 26 25 27 23 24 23 21 23 27 22 11 21 31 25 21 31 24 33 31 34 34 38 42 44 45 44 45 46 46 48 50 51 50 51 51 50
32 27 25 24 30 34 29 36 32 34 34 37 28 30 29 24 24 20 18 22 17 18 20 20 17 20 21 18 20 15 10 9 8 10 12 27 19 25 26 26 27 32 44 31 37 25 29 28 27 29 26 23 26 26 27 25 22 22 22 26 25 30 37 22 20 20 21 23 20 34 37 36 39 41 43 45 46 46 47 47 48 49 50 51 49 48 48 48
23 29 33 33 33 29 30 29 33 39 35 33 34 36 31 31 24 25 22 20 18 21 21 20 18 16 15 17 20 21 18 17 15 20 8 6 25 29 26 33 27 38 35 23 25 28 28 24 27 29 25 21 22 23 24 24 22 22 24 26 28 32 36 37 27 22 28 24 20 37 39 39 39 41 43 44 45 46 47 48 49 50 51 51 49 46 46 46
29 32 34 35 31 33 34 34 34 32 37 33 35 30 31 31 30 27 23 28 19 23 19 24 19 15 14 11 16 18 23 23 27 29 34 35 33 29 30 36 41 25 23 26 24 30 29 23 27 25 24 22 21 23 25 24 24 23 23 24 26 32 36 36 39 35 35 29 36 38 39 40 42 43 44 45 47 49 49 49 50 50 50 50 49 44 44 45
29 30 31 35 33 31 33 33 34 31 31 32 29 32 31 33 26 23 23 28 28 28 24 29 22 14 12 27 29 33 35 36 35 33 38 34 32 34 36 37 39 34 23 27 28 43 33 29 35 29 24 23 24 24 24 24 25 25 24 24 26 29 30 36 38 39 40 39 38 39 39 38 41 43 41 37 41 42 40 40 44 48 48 50 44 41 41 42
34 34 37 32 23 23 28 29 29 30 28 30 31 31 31 29 31 30 23 22 25 27 25 28 28 31 27 27 27 27 25 30 30 31 30 29 28 34 29 29 28 33 26 27 35 39 37 28 30 36 23 24 23 25 24 24 25 26 27 28 27 30 30 35 36 39 40 37 38 37 36 35 38 34 33 33 34 35 35 35 37 40 41 39 39 35 35 35
38 35 37 32 26 27 22 24 26 26 26 30 32 32 29 28 27 33 25 23 25 22 24 26 29 30 29 28 27 25 25 25 26 25 24 23 23 20 23 24 24 26 33 40 41 41 36 30 28 26 22 21 23 24 24 25 26 24 28 29 29 34 31 30 33 35 40 41 35 32 34 38 34 33 32 31 32 32 33 34 34 34 34 34 34 34 33 34